DW5657 Weather Reports


time (UTC)temp
C
wind
direction
speed
KPH
gust
KPH
rain 1hr
cm
rain 24hr
cm
rain mn
cm
humidity
%
barometer
mb
20260509024204 15 133 0.0 3.2 0.00 0.00 0.00 74 1009.7
20260509023704 15 112 0.0 0.0 0.00 0.00 0.00 73 1009.8
20260509023204 16 93 0.0 0.0 0.00 0.00 0.00 72 1009.4
20260509022704 16 92 0.0 0.0 0.00 0.00 0.00 71 1009.4
20260509021704 16 91 0.0 0.0 0.00 0.00 0.00 70 1009.2
20260509021203 16 92 0.0 0.0 0.00 0.00 0.00 70 1009.1
20260509020704 16 91 0.0 0.0 0.00 0.00 0.00 69 1009.1
20260509020204 16 91 0.0 0.0 0.00 0.00 0.00 69 1009.1
20260509015704 17 89 0.0 0.0 0.00 0.00 0.00 67 1009.1
20260509015205 17 93 0.0 0.0 0.00 0.00 0.00 66 1009.2
20260509014704 17 88 0.0 0.0 0.00 0.00 0.00 66 1009.3
20260509014205 17 86 1.6 4.8 0.00 0.00 0.00 64 1009.3
20260509013203 17 81 3.2 19.3 0.00 0.00 0.00 58 1009.2
20260509012704 17 79 1.6 8.0 0.00 0.00 0.00 58 1009.2
20260509012204 18 80 3.2 9.7 0.00 0.00 0.00 57 1009.2
20260509011704 18 78 0.0 9.7 0.00 0.00 0.00 56 1009.2
20260509011204 18 84 0.0 0.0 0.00 0.00 0.00 57 1009.2
20260509010705 18 89 0.0 1.6 0.00 0.00 0.00 55 1009.2
20260509010204 18 82 1.6 8.0 0.00 0.00 0.00 55 1009.1
20260509005204 18 80 0.0 0.0 0.00 0.00 0.00 55 1008.8
20260509004704 18 81 0.0 1.6 0.00 0.00 0.00 54 1008.7
20260509004204 18 78 0.0 9.7 0.00 0.00 0.00 52 1008.6
20260509003704 18 79 1.6 9.7 0.00 0.00 0.00 50 1008.5
20260509003204 18 82 0.0 4.8 0.00 0.00 0.00 51 1008.5
20260509002704 18 77 1.6 4.8 0.00 0.00 0.00 50 1008.5
20260509002204 18 73 0.0 3.2 0.00 0.00 0.00 51 1008.6
20260509001704 18 79 0.0 3.2 0.00 0.00 0.00 51 1008.6
20260509001204 18 84 1.6 8.0 0.00 0.00 0.00 51 1008.7
20260509000703 18 78 0.0 3.2 0.00 0.00 0.00 51 1008.7
20260509000204 18 83 1.6 8.0 0.00 0.00 0.00 52 1008.7
20260508235703 18 75 1.6 4.8 0.00 0.00 0.00 51 1008.7
20260508235204 18 78 0.0 1.6 0.00 0.00 0.00 52 1008.6
20260508234704 18 76 0.0 0.0 0.00 0.00 0.00 53 1008.5
20260508234204 18 60 0.0 0.0 0.00 0.00 0.00 53 1008.6
20260508233704 18 77 0.0 0.0 0.00 0.00 0.00 54 1008.5
20260508233204 18 65 0.0 3.2 0.00 0.00 0.00 54 1008.6
20260508232704 19 76 1.6 3.2 0.00 0.00 0.00 53 1008.7
20260508232204 19 77 0.0 4.8 0.00 0.00 0.00 52 1008.8
20260508231704 19 66 1.6 4.8 0.00 0.00 0.00 51 1008.8
20260508231203 19 61 1.6 4.8 0.00 0.00 0.00 50 1008.6
20260508230704 19 60 0.0 3.2 0.00 0.00 0.00 49 1008.6
20260508230204 20 50 0.0 4.8 0.00 0.00 0.00 49 1008.6
20260508225704 20 56 3.2 11.3 0.00 0.00 0.00 48 1008.5
20260508225204 20 51 3.2 11.3 0.00 0.00 0.00 46 1008.5
20260508224704 20 47 1.6 4.8 0.00 0.00 0.00 47 1008.6
20260508224204 20 44 1.6 9.7 0.00 0.00 0.00 46 1008.5
20260508223703 20 42 1.6 9.7 0.00 0.00 0.00 46 1008.5
20260508223203 20 41 1.6 12.9 0.00 0.00 0.00 46 1008.4
20260508222705 20 51 1.6 12.9 0.00 0.00 0.00 45 1008.4
20260508221204 20 45 4.8 16.1 0.00 0.00 0.00 45 1008.4
20260508220704 20 34 3.2 9.7 0.00 0.00 0.00 46 1008.4
20260508215203 20 45 8.0 11.3 0.00 0.00 0.00 43 1008.4
20260508214704 20 42 4.8 14.5 0.00 0.00 0.00 44 1008.4
20260508214205 20 44 8.0 16.1 0.00 0.00 0.00 43 1008.4
20260508213704 20 43 4.8 12.9 0.00 0.00 0.00 44 1008.5
20260508213203 20 46 3.2 12.9 0.00 0.00 0.00 43 1008.5
20260508212204 20 39 6.4 20.9 0.00 0.00 0.00 43 1008.6
20260508211704 20 45 9.7 19.3 0.00 0.00 0.00 43 1008.6
20260508210703 20 51 6.4 19.3 0.00 0.00 0.00 44 1008.8
20260508210204 20 48 3.2 19.3 0.00 0.00 0.00 44 1008.8
20260508205704 20 47 6.4 14.5 0.00 0.00 0.00 43 1009.0
20260508205204 20 45 8.0 14.5 0.00 0.00 0.00 43 1009.1
20260508204704 20 43 4.8 14.5 0.00 0.00 0.00 43 1009.2
20260508204205 20 40 8.0 14.5 0.00 0.00 0.00 42 1009.3
20260508203204 20 41 8.0 16.1 0.00 0.00 0.00 43 1009.4
20260508202704 20 35 8.0 14.5 0.00 0.00 0.00 42 1009.4
20260508202205 20 40 8.0 22.5 0.00 0.00 0.00 42 1009.5
20260508201704 20 46 4.8 11.3 0.00 0.00 0.00 42 1009.5
20260508201204 20 54 6.4 19.3 0.00 0.00 0.00 42 1009.7
20260508200704 20 46 4.8 11.3 0.00 0.00 0.00 42 1009.6
20260508200204 20 45 4.8 11.3 0.00 0.00 0.00 43 1009.6
20260508195704 20 40 4.8 12.9 0.00 0.00 0.00 42 1009.7
20260508195204 20 38 3.2 12.9 0.00 0.00 0.00 43 1009.7
20260508194203 20 37 6.4 14.5 0.00 0.00 0.00 42 1009.8
20260508193202 20 33 4.8 19.3 0.00 0.00 0.00 40 1009.8
20260508192703 21 37 6.4 19.3 0.00 0.00 0.00 40 1009.8
20260508192203 21 42 11.3 14.5 0.00 0.00 0.00 39 1009.9
20260508191703 21 66 4.8 14.5 0.00 0.00 0.00 39 1010.1
20260508191204 21 69 8.0 20.9 0.00 0.00 0.00 39 1010.1
20260508190702 21 71 8.0 16.1 0.00 0.00 0.00 42 1010.1
20260508190203 21 65 3.2 12.9 0.00 0.00 0.00 42 1010.1
20260508185703 21 50 6.4 20.9 0.00 0.00 0.00 41 1010.3
20260508185203 21 51 8.0 20.9 0.00 0.00 0.00 39 1010.5
20260508184702 21 58 8.0 20.9 0.00 0.00 0.00 40 1010.6
20260508184203 21 55 9.7 19.3 0.00 0.00 0.00 39 1010.6
20260508183202 21 72 6.4 19.3 0.00 0.00 0.00 42 1010.8
20260508182703 21 74 4.8 19.3 0.00 0.00 0.00 42 1010.9
20260508182203 21 76 6.4 16.1 0.00 0.00 0.00 41 1010.9
20260508181703 20 64 4.8 14.5 0.00 0.00 0.00 44 1011.0
20260508181203 20 51 4.8 20.9 0.00 0.00 0.00 43 1011.1
20260508180703 20 40 8.0 22.5 0.00 0.00 0.00 42 1011.1
20260508180204 20 36 9.7 22.5 0.00 0.00 0.00 42 1011.3
20260508175703 20 45 9.7 22.5 0.00 0.00 0.00 39 1011.3
20260508175203 20 52 9.7 22.5 0.00 0.00 0.00 39 1011.3
20260508174704 20 51 8.0 14.5 0.00 0.00 0.00 41 1011.4
20260508174205 20 49 9.7 19.3 0.00 0.00 0.00 41 1011.4
20260508173703 20 46 8.0 14.5 0.00 0.00 0.00 43 1011.6
20260508173204 20 42 11.3 19.3 0.00 0.00 0.00 42 1011.8
20260508172703 20 46 8.0 16.1 0.00 0.00 0.00 42 1012.0
20260508172203 20 56 6.4 11.3 0.00 0.00 0.00 45 1012.0
20260508171703 20 57 4.8 19.3 0.00 0.00 0.00 45 1012.0
20260508171203 20 66 4.8 16.1 0.00 0.00 0.00 44 1012.0
20260508170702 20 86 8.0 16.1 0.00 0.00 0.00 45 1012.2
20260508170204 20 107 4.8 12.9 0.00 0.00 0.00 46 1012.2
20260508165703 20 97 4.8 11.3 0.00 0.00 0.00 45 1012.4
20260508165204 20 100 8.0 19.3 0.00 0.00 0.00 46 1012.5
20260508164704 20 110 9.7 20.9 0.00 0.00 0.00 45 1012.6
20260508164203 20 110 9.7 20.9 0.00 0.00 0.00 45 1012.8
20260508163703 20 97 6.4 20.9 0.00 0.00 0.00 47 1012.8
20260508163203 19 114 11.3 20.9 0.00 0.00 0.00 45 1012.8
20260508162703 19 104 9.7 19.3 0.00 0.00 0.00 47 1012.9
20260508162203 19 101 8.0 20.9 0.00 0.00 0.00 46 1012.9
20260508161703 19 111 9.7 19.3 0.00 0.00 0.00 48 1012.9
20260508161204 18 117 11.3 22.5 0.00 0.00 0.00 47 1013.0
20260508160704 18 122 9.7 16.1 0.00 0.00 0.00 47 1013.1
20260508160203 18 112 8.0 19.3 0.00 0.00 0.00 47 1013.1
20260508155703 18 107 9.7 19.3 0.00 0.00 0.00 46 1013.2
20260508154702 18 104 8.0 19.3 0.00 0.00 0.00 49 1013.2
20260508154203 18 113 4.8 14.5 0.00 0.00 0.00 49 1013.3
20260508153702 18 125 9.7 22.5 0.00 0.00 0.00 50 1013.5
20260508153203 18 123 11.3 22.5 0.00 0.00 0.00 49 1013.6
20260508151703 17 124 8.0 14.5 0.00 0.00 0.00 50 1013.6
20260508151203 17 124 9.7 22.5 0.00 0.00 0.00 49 1013.7
20260508150702 17 128 6.4 19.3 0.00 0.00 0.00 50 1013.7
20260508145703 17 118 9.7 19.3 0.00 0.00 0.00 49 1013.6
20260508145204 17 133 6.4 16.1 0.00 0.00 0.00 49 1013.7
20260508144703 17 131 8.0 16.1 0.00 0.00 0.00 51 1013.7
20260508144202 17 123 8.0 16.1 0.00 0.00 0.00 50 1013.8
20260508143702 16 126 9.7 14.5 0.00 0.00 0.00 50 1013.8
20260508143203 16 138 8.0 19.3 0.00 0.00 0.00 49 1013.8
20260508142703 16 134 4.8 9.7 0.00 0.00 0.00 51 1013.9
20260508142202 16 118 4.8 11.3 0.00 0.00 0.00 52 1014.0
20260508141703 16 115 8.0 16.1 0.00 0.00 0.00 51 1014.0
20260508140203 15 114 3.2 12.9 0.00 0.00 0.00 54 1014.1
20260508135703 15 87 4.8 14.5 0.00 0.00 0.00 52 1014.1
20260508135204 15 55 9.7 20.9 0.00 0.00 0.00 53 1014.2
20260508134703 14 55 6.4 14.5 0.00 0.00 0.00 55 1014.2
20260508134203 14 54 4.8 14.5 0.00 0.00 0.00 56 1014.2
20260508132703 13 71 6.4 12.9 0.00 0.00 0.00 59 1014.3
20260508132203 12 63 3.2 12.9 0.00 0.00 0.00 59 1014.2
20260508131703 12 72 3.2 8.0 0.00 0.00 0.00 60 1014.3
20260508131204 12 74 3.2 9.7 0.00 0.00 0.00 60 1014.3
20260508130704 12 75 4.8 9.7 0.00 0.00 0.00 63 1014.3
20260508130203 12 66 1.6 3.2 0.00 0.00 0.00 63 1014.3
20260508125204 11 102 1.6 8.0 0.00 0.00 0.00 64 1014.1
20260508124704 11 98 0.0 4.8 0.00 0.00 0.00 63 1014.2
20260508124203 11 97 3.2 8.0 0.00 0.00 0.00 65 1014.1
20260508123704 10 104 1.6 4.8 0.00 0.00 0.00 65 1014.1
20260508123203 10 96 0.0 1.6 0.00 0.00 0.00 66 1014.1
20260508122703 10 110 0.0 1.6 0.00 0.00 0.00 66 1014.1
20260508122203 10 101 0.0 3.2 0.00 0.00 0.00 67 1014.1
20260508121703 10 102 0.0 3.2 0.00 0.00 0.00 67 1014.0
20260508121203 10 102 0.0 3.2 0.00 0.00 0.00 67 1014.2
20260508120703 10 116 0.0 3.2 0.00 0.00 0.00 68 1014.1
20260508120203 10 112 0.0 4.8 0.00 0.00 0.00 67 1014.1
20260508115703 9 107 1.6 4.8 0.00 0.00 0.00 68 1014.1
20260508115203 9 115 0.0 0.0 0.00 0.00 0.00 68 1014.1
20260508113703 9 115 0.0 0.0 0.00 0.00 0.00 67 1013.8
20260508112703 9 116 0.0 0.0 0.00 0.00 0.00 68 1013.8
20260508112203 9 116 0.0 0.0 0.00 0.00 0.00 67 1013.8
20260508111704 9 116 0.0 0.0 0.00 0.00 0.00 67 1013.7
20260508111204 9 114 0.0 0.0 0.00 0.00 0.00 67 1013.7
20260508110704 9 116 0.0 0.0 0.00 0.00 0.00 67 1013.6
20260508110203 9 116 0.0 0.0 0.00 0.00 0.00 67 1013.5
20260508105703 9 115 0.0 0.0 0.00 0.00 0.00 67 1013.5
20260508105203 9 114 0.0 0.0 0.00 0.00 0.00 66 1013.5
20260508104703 9 116 0.0 0.0 0.00 0.00 0.00 67 1013.6
20260508104203 9 118 0.0 0.0 0.00 0.00 0.00 67 1013.7
20260508103703 9 117 0.0 1.6 0.00 0.00 0.00 67 1013.7
20260508103204 8 129 0.0 0.0 0.00 0.00 0.00 67 1013.7
20260508102703 8 117 1.6 4.8 0.00 0.00 0.00 67 1013.6
20260508102204 8 106 0.0 0.0 0.00 0.00 0.00 67 1013.6
20260508101703 8 106 0.0 0.0 0.00 0.00 0.00 67 1013.6
20260508101202 8 107 0.0 0.0 0.00 0.00 0.00 68 1013.5
20260508100703 8 105 0.0 0.0 0.00 0.00 0.00 67 1013.5
20260508100204 8 107 0.0 0.0 0.00 0.00 0.00 67 1013.5
20260508095703 8 105 0.0 0.0 0.00 0.00 0.00 68 1013.5
20260508095203 8 104 0.0 0.0 0.00 0.00 0.00 68 1013.6
20260508094703 8 104 0.0 0.0 0.00 0.00 0.00 68 1013.6
20260508094203 8 104 0.0 0.0 0.00 0.00 0.00 68 1013.7
20260508093703 8 104 0.0 0.0 0.00 0.00 0.00 68 1013.6
20260508093203 8 105 0.0 0.0 0.00 0.00 0.00 68 1013.7
20260508092703 8 105 0.0 0.0 0.00 0.00 0.00 67 1013.6
20260508092203 8 105 0.0 0.0 0.00 0.00 0.00 68 1013.5
20260508091704 8 106 0.0 0.0 0.00 0.00 0.00 68 1013.6
20260508090703 8 101 0.0 0.0 0.00 0.00 0.00 68 1013.7
20260508090203 8 99 0.0 0.0 0.00 0.00 0.00 68 1013.7
20260508085703 8 103 0.0 0.0 0.00 0.00 0.00 68 1013.6
20260508085203 8 112 0.0 0.0 0.00 0.00 0.00 68 1013.6
20260508084203 8 112 0.0 0.0 0.00 0.00 0.00 67 1013.5
20260508083704 8 111 0.0 0.0 0.00 0.00 0.00 67 1013.5
20260508083204 8 110 0.0 0.0 0.00 0.00 0.00 67 1013.4
20260508082203 8 112 0.0 0.0 0.00 0.00 0.00 67 1013.5
20260508081203 8 109 0.0 0.0 0.00 0.00 0.00 66 1013.4
20260508080703 8 109 0.0 0.0 0.00 0.00 0.00 66 1013.5
20260508080204 8 124 0.0 0.0 0.00 0.00 0.00 66 1013.4
20260508075704 8 121 0.0 0.0 0.00 0.00 0.00 67 1013.5
20260508075204 8 122 0.0 0.0 0.00 0.00 0.00 66 1013.6
20260508074704 8 118 0.0 0.0 0.00 0.00 0.00 67 1013.5
20260508074204 8 119 0.0 0.0 0.00 0.00 0.00 66 1013.5
20260508073703 8 119 0.0 0.0 0.00 0.00 0.00 66 1013.4
20260508073204 8 117 0.0 0.0 0.00 0.00 0.00 66 1013.3
20260508072204 8 114 0.0 0.0 0.00 0.00 0.00 67 1013.5
20260508071703 8 114 0.0 0.0 0.00 0.00 0.00 66 1013.5
20260508071203 8 115 0.0 0.0 0.00 0.00 0.00 67 1013.5
20260508070704 8 119 0.0 0.0 0.00 0.00 0.00 66 1013.6
20260508070203 8 119 0.0 0.0 0.00 0.00 0.00 67 1013.6
20260508065703 8 119 0.0 0.0 0.00 0.00 0.00 66 1013.6
20260508065204 8 118 0.0 0.0 0.00 0.00 0.00 66 1013.7
20260508064203 8 116 0.0 0.0 0.00 0.00 0.00 66 1013.9
20260508063704 8 116 0.0 0.0 0.00 0.00 0.00 67 1014.0
20260508063203 8 118 0.0 1.6 0.00 0.00 0.00 67 1014.1
20260508062703 8 124 0.0 1.6 0.00 0.00 0.00 67 1014.1
20260508062203 8 127 0.0 0.0 0.00 0.00 0.00 67 1014.1
20260508061704 8 125 0.0 0.0 0.00 0.00 0.00 67 1014.2
20260508060704 8 123 0.0 0.0 0.00 0.00 0.00 67 1014.2
20260508060204 8 121 0.0 0.0 0.00 0.00 0.00 67 1014.1
20260508055703 8 122 0.0 0.0 0.00 0.00 0.00 67 1014.1
20260508055203 8 118 0.0 0.0 0.00 0.00 0.00 67 1014.2
20260508054203 8 118 0.0 0.0 0.00 0.00 0.00 65 1014.2
20260508053703 8 116 0.0 0.0 0.00 0.00 0.00 64 1014.3
20260508053204 8 114 0.0 0.0 0.00 0.00 0.00 64 1014.2
20260508052203 9 109 0.0 0.0 0.00 0.00 0.00 63 1014.1
20260508051703 9 108 0.0 0.0 0.00 0.00 0.00 63 1014.1
20260508051203 9 109 0.0 0.0 0.00 0.00 0.00 62 1014.1
20260508050703 9 109 0.0 0.0 0.00 0.00 0.00 62 1014.0
20260508050204 9 107 0.0 0.0 0.00 0.00 0.00 61 1014.0
20260508045703 9 109 0.0 0.0 0.00 0.00 0.00 61 1014.1
20260508045204 9 112 0.0 0.0 0.00 0.00 0.00 61 1014.1
20260508044703 10 111 0.0 0.0 0.00 0.00 0.00 61 1014.1
20260508044203 10 110 0.0 0.0 0.00 0.00 0.00 60 1014.1
20260508043703 10 111 0.0 0.0 0.00 0.00 0.00 60 1014.0
20260508043204 10 109 0.0 0.0 0.00 0.00 0.00 59 1014.0
20260508042703 10 109 0.0 0.0 0.00 0.00 0.00 59 1014.0
20260508042203 10 108 0.0 0.0 0.00 0.00 0.00 59 1014.1
20260508041203 10 109 0.0 0.0 0.00 0.00 0.00 58 1014.0
20260508040204 10 111 0.0 0.0 0.00 0.00 0.00 58 1013.8
20260508035702 10 109 0.0 0.0 0.00 0.00 0.00 58 1013.9
20260508034703 10 109 0.0 0.0 0.00 0.00 0.00 57 1013.9
20260508034203 10 108 0.0 0.0 0.00 0.00 0.00 57 1013.9
20260508033203 10 109 0.0 0.0 0.00 0.00 0.00 57 1014.0
20260508032703 10 109 0.0 0.0 0.00 0.00 0.00 57 1014.0
20260508032203 10 107 0.0 0.0 0.00 0.00 0.00 57 1014.0
20260508031703 10 107 0.0 0.0 0.00 0.00 0.00 57 1014.0
20260508031203 10 105 0.0 0.0 0.00 0.00 0.00 57 1013.9
20260508030203 10 104 0.0 0.0 0.00 0.00 0.00 57 1014.0
20260508025203 10 106 0.0 0.0 0.00 0.00 0.00 57 1014.1
20260508024703 10 109 0.0 0.0 0.00 0.00 0.00 58 1014.1